Regional Weather Roundup
Issued by NWS

Home | Current Version | Previous Version | Text Only | Print | Product List | Glossary On
Versions: 1 2 3 4 5 6 7 8 9 10 11 12 13 14 15 16 17 18 19 20 21 22 23 24 25 26 27 28 29 30 31 32 33 34 35 36 37 38 39 40 41 42 43 44 45 46 47 48 49 50
000
ASUS44 KFWD 061001
RWRTX
NORTH TEXAS HOURLY WEATHER ROUNDUP
NATIONAL WEATHER SERVICE FORT WORTH TX
500 AM CDT FRI MAY 06 2016

NOTE: "FAIR" INDICATES FEW OR NO CLOUDS BELOW 12,000 FEET WITH NO
SIGNIFICANT WEATHER AND/OR OBSTRUCTIONS TO VISIBILITY.

TXZ118-119-061100-
DALLAS/FORT WORTH METROPLEX

CITY           SKY/WX    TMP DP  RH WIND       PRES   REMARKS
DFW AIRPORT    CLEAR     61  49  64 CALM      30.04R
DALLAS LOVE    CLEAR     60  52  74 CALM      30.04R
FTW MEACHAM    CLEAR     58  52  80 CALM      30.04R
DAL-EXECUTIVE  CLEAR     56  48  74 W3        30.04R
FTW-ALLIANCE   CLEAR     49  47  93 CALM      30.04R
FTW-NAS-JRB    CLEAR     58  54  86 NW5       30.05R
ARLINGTON      CLEAR     54  50  86 CALM      30.04S
GRAND PRAIRIE  CLEAR     58  49  71 CALM      30.06R
MESQUITE       CLEAR     54  54  99 CALM      30.04S
LANCASTER      CLEAR     53  49  86 CALM      30.05R
$$

TXZ091>094-102>105-117-120-121-131>134-061100-
NORTH CENTRAL TEXAS

CITY           SKY/WX    TMP DP  RH WIND       PRES   REMARKS
BRIDGEPORT     CLEAR     48  48 100 CALM      30.07R
DECATUR        CLEAR     60  46  60 E5        30.06R
DENTON         PTCLDY    51  49  92 NW5       30.05R
MCKINNEY       CLEAR     53  51  93 NW3       30.04S
TERRELL        CLEAR     55  50  83 CALM      30.04R
WAXAHACHIE     CLEAR     54  49  82 CALM      30.05S
GRANBURY       CLEAR     51  49  92 CALM      30.06R
$$

TXZ083>090-098>101-113>116-127>130-139>142-154-155-061100-
WESTERN NORTH TEXAS

CITY           SKY/WX    TMP DP  RH WIND       PRES   REMARKS
WICHITA FALLS  CLEAR     57  48  72 SE5       30.04S
WF-KICKAPOO    CLEAR     58  51  77 E7        30.05F
ABILENE        NOT AVBL
MINERAL WELLS  CLEAR     54  51  90 CALM      30.04R
STEPHENVILLE   CLEAR     55  50  83 CALM      30.09R
COMANCHE       CLEAR     61  50  68 CALM      30.06F
BROWNWOOD      PTCLDY    55  55 100 NE3       30.05F
COLEMAN        CLEAR     57  52  82 CALM      30.06S
$$

TXZ143>147-156>162-174-175-061100-
CENTRAL TEXAS

CITY           SKY/WX    TMP DP  RH WIND       PRES   REMARKS
WACO           CLEAR     52  49  89 NE3       30.03F
WACO-MCGREGOR  CLEAR     52  50  93 CALM      30.03F
HILLSBORO      CLEAR     53  48  81 CALM      30.05R
CORSICANA      CLEAR     55  51  86 W5        30.04S
HEARNE         CLEAR     52  52  97 CALM      30.04S
TEMPLE         CLEAR     57  55  93 SW3       30.05R
KILLEEN        NOT AVBL
KILLEEN-SKYLRK CLEAR     57  53  86 W3        30.06R
HAMILTON       CLEAR     56  52  86 CALM      30.07R
LAMPASAS       CLEAR     55  53  93 CALM      30.05R
$$

TXZ095>097-106>112-122>126-135>138-148>153-164>167-061100-
EAST TEXAS

CITY           SKY/WX    TMP DP  RH WIND       PRES   REMARKS
PARIS          CLEAR     54  43  66 N6        30.03S
GILMER         CLEAR     52  50  93 CALM      30.03R
MINEOLA        CLEAR     54  52  94 CALM      30.04S
TYLER          CLEAR     56  50  80 CALM      30.02S
LONGVIEW       CLEAR     55  52  89 CALM      30.01S
PALESTINE      CLEAR     53  51  94 CALM      30.04R
JACKSONVILLE   CLEAR     63  48  59 N5        30.05R
NACOGDOCHES    CLEAR     48  46  93 CALM      30.02S
LUFKIN         CLEAR     52  51  97 CALM      30.02R
$$

SUPPLEMENTAL OBSERVATIONS (CENTRAL)

CITY           SKY/WX    TMP DP  RH WIND       PRES   REMARKS
$$

SUPPLEMENTAL OBSERVATIONS (WEST)

CITY           SKY/WX    TMP DP  RH WIND       PRES   REMARKS
$$

SUPPLEMENTAL OBSERVATIONS (EAST)

CITY           SKY/WX    TMP DP  RH WIND       PRES   REMARKS
$$

SUPPLEMENTAL OBSERVATIONS ARE A COLLECTION OF AUTOMATED INSTRUMENTS
THAT ARE MAINTAINED BY A VARIETY OF FEDERAL AND STATE AGENCIES.
CERTAIN ELEMENTS...SUCH AS HUMIDITY VALUES AND SUSTAINED WIND
SPEEDS...MAY BE APPROXIMATED.





USA.gov is the U.S. government's official web portal to all federal, state and local government web resources and services.